User: anonymous   Login
Location: Trois-Rivi�res
(46.3500°N, 72.5500°W)
Time: 22:13:29
(UTC-04:00)
Language:

SJ-11-01 - Orbit

View from above orbital plane
View from above orbital plane
View from above satellite
View from above satellite

Ground track
Ground track

The orbit data is extracted from the following two-line orbital elements,

1 36088U 09061A   15239.75274595 -.00000144  00000-0 -20276-4 0  9997
2 36088 098.2331 285.1696 0012131 157.8999 202.2697 14.59683271308438
Epoch (UTC): 27 August 2015 18:03:57
Eccentricity: 0.0012131
inclination: 98.2331°
perigee height: 685 km
apogee height: 703 km
right ascension of ascending node: 285.1696°
argument of perigee: 157.8999°
revolutions per day: 14.59683271
mean anomaly at epoch: 202.2697°
orbit number at epoch: 30843

The dashed part of the orbit path shows where the satellite is in the earth's shadow,  

DLR